GW0007 Weather Reports


time (UTC)temp
C
wind
direction
speed
KPH
gust
KPH
rain 1hr
cm
rain 24hr
cm
rain mn
cm
humidity
%
barometer
mb
20260502194540 22 119 3.2 16.1 0.00 0.00 0.00 21 1015.7
20260502193039 21 288 11.3 24.1 0.00 0.00 0.00 22 1016.0
20260502191550 21 26 0.0 17.7 0.00 0.00 0.00 23 1016.3
20260502190044 21 221 14.5 29.0 0.00 0.00 0.00 21 1016.5
20260502184543 21 127 4.8 11.3 0.00 0.00 0.00 21 1017.0
20260502183037 20 356 8.0 12.9 0.00 0.00 0.00 24 1017.2
20260502181539 20 50 4.8 11.3 0.00 0.00 0.00 23 1017.4
20260502163050 17 288 4.8 12.9 0.00 0.00 0.00 30 1017.8
20260502161603 16 239 4.8 11.3 0.00 0.00 0.00 32 1017.9
20260502151544 13 290 4.8 12.9 0.00 0.00 0.00 37 1018.3
20260502123111 3 229 3.2 8.0 0.00 0.00 0.00 59 1018.2
20260502121544 3 252 1.6 12.9 0.00 0.00 0.00 56 1018.1
20260502114537 3 0 0.0 6.4 0.00 0.00 0.00 59 1017.9
20260502113036 4 269 3.2 8.0 0.00 0.00 0.00 54 1018.0
20260502111535 3 0 0.0 4.8 0.00 0.00 0.00 57 1018.0
20260502110048 3 257 1.6 4.8 0.00 0.00 0.00 56 1017.9
20260502104538 3 226 4.8 8.0 0.00 0.00 0.00 56 1017.9
20260502103036 3 252 3.2 8.0 0.00 0.00 0.00 57 1017.9
20260502101553 3 278 4.8 11.3 0.00 0.00 0.00 59 1017.9
20260502070041 5 254 1.6 9.7 0.00 0.00 0.00 55 1017.9
20260502064538 5 252 3.2 6.4 0.00 0.00 0.00 52 1017.9
20260502063051 6 295 0.0 3.2 0.00 0.00 0.00 50 1017.8
20260502061544 7 217 4.8 6.4 0.00 0.00 0.00 46 1017.6
20260502060043 7 254 0.0 3.2 0.00 0.00 0.00 47 1017.7
20260502054542 7 274 1.6 3.2 0.00 0.00 0.00 54 1017.7
20260502053041 7 257 1.6 3.2 0.00 0.00 0.00 48 1017.6
20260502051540 7 256 3.2 8.0 0.00 0.00 0.00 47 1017.6
20260502050038 7 288 1.6 1.6 0.00 0.00 0.00 52 1017.6
20260502044544 9 215 4.8 11.3 0.00 0.00 0.00 41 1017.5
20260502043046 10 247 8.0 11.3 0.00 0.00 0.00 40 1017.4
20260502041547 10 226 8.0 11.3 0.00 0.00 0.00 40 1017.4
20260502040058 11 293 3.2 6.4 0.00 0.00 0.00 36 1017.4
20260502034545 11 0 0.0 3.2 0.00 0.00 0.00 40 1017.3
20260502033044 12 250 3.2 11.3 0.00 0.00 0.00 34 1017.1
20260502031543 12 261 3.2 6.4 0.00 0.00 0.00 33 1016.7
20260502030042 13 275 3.2 9.7 0.00 0.00 0.00 32 1016.6
20260502024550 16 238 8.0 16.1 0.00 0.00 0.00 26 1016.6
20260502023045 17 247 11.3 17.7 0.00 0.00 0.00 23 1016.5
20260502021544 18 290 4.8 12.9 0.00 0.00 0.00 22 1016.4
20260502020043 19 244 8.0 17.7 0.00 0.00 0.00 20 1016.4
20260502014543 20 243 9.7 19.3 0.00 0.00 0.00 19 1016.3
20260502013038 21 231 9.7 19.3 0.00 0.00 0.00 18 1016.4
20260502011539 21 270 8.0 16.1 0.00 0.00 0.00 17 1016.4
20260502010049 21 253 8.0 20.9 0.00 0.00 0.00 17 1016.4
20260502004552 21 290 8.0 17.7 0.00 0.00 0.00 17 1016.5
20260502003035 21 304 8.0 19.3 0.00 0.00 0.00 17 1016.5
20260502001543 21 266 9.7 19.3 0.00 0.00 0.00 15 1016.5
20260502000041 21 223 11.3 24.1 0.00 0.00 0.00 15 1016.5
20260501234544 21 240 6.4 20.9 0.00 0.00 0.00 16 1016.5
20260501233039 21 329 11.3 22.5 0.00 0.00 0.00 17 1016.5
20260501231533 21 283 12.9 25.7 0.00 0.00 0.00 17 1016.6
20260501230035 21 288 12.9 25.7 0.00 0.00 0.00 18 1016.7
20260501224547 21 305 12.9 22.5 0.00 0.00 0.00 17 1016.7
20260501223040 21 229 11.3 29.0 0.00 0.00 0.00 17 1016.8
20260501221536 21 299 12.9 25.7 0.00 0.00 0.00 18 1017.2
20260501220050 21 309 11.3 22.5 0.00 0.00 0.00 18 1017.3
20260501214535 21 310 11.3 25.7 0.00 0.00 0.00 18 1017.3
20260501213048 20 252 16.1 30.6 0.00 0.00 0.00 19 1017.3
20260501211542 20 263 14.5 27.4 0.00 0.00 0.00 20 1017.6
20260501210046 20 323 12.9 24.1 0.00 0.00 0.00 21 1017.6
20260501204539 20 250 16.1 32.2 0.00 0.00 0.00 20 1017.9
20260501203034 20 290 14.5 29.0 0.00 0.00 0.00 22 1017.9
20260501201543 19 238 9.7 24.1 0.00 0.00 0.00 23 1018.0
20260501200038 19 219 8.0 22.5 0.00 0.00 0.00 23 1018.2